Weather in Voropayevskiy

Russia / Tula Oblast     53°25′58″N   36°47′23″E
temp.,
°C
wind,
m/s
gust,
m/s
humid.,
%
clouds,
%
prec.,
mm/h
press.,
hPa
HPBL,
m
29 june, wed
wed2900:00+16ene497047 0.0 1021150
03:00+13ene367463 0.0 1021103
06:00+14ene3681100 0.0 1022152
09:00+18ene4565100 0.0 1022436
12:00+20ene3453100 0.0 10211117
15:00+21e3251100 0.0 10211457
18:00+20ene3365100 0.0 1020516
21:00+15e337621 0.0 102022
30 june, thu
thu3000:00+13e22785 0.0 102015
03:00+11se11840 0.0 102010
06:00+13ene12790 0.0 102049
09:00+18ne22650 0.0 1020545
12:00+21nne23526 0.0 10191513
15:00+22nne34504 0.0 10181909
18:00+21ne3466100 0.0 1017425
21:00+16n22725 0.0 101811
1 july, fri
fri100:00+14n33822 0.0 101941
03:00+11nne34760 0.0 102053
06:00+13n34790 0.0 102093
09:00+19n46645 0.0 1020446
12:00+22nne58555 0.0 10201897
15:00+23nne595010 0.0 10192211
18:00+22ne356334 0.0 1019969
21:00+16e227578 0.0 102011
2 july, sat
sat200:00+13e11792 0.0 102111
03:00+12ene11790 0.0 102110
06:00+14nw11775 0.0 102221
09:00+19nnw226324 0.0 1021431
12:00+23nw235320 0.0 10201134
15:00+24nw345056 0.0 10191268
18:00+24w46662 0.0 1018675
21:00+18ne3690100 2.1 1018114
3 july, sun
sun300:00+16wnw22940 2.0 101824
03:00+16nw37920 2.1 1017102
06:00+17nnw37914 0.0 1017158
09:00+22nne45751 0.0 1018456
12:00+24n336941 0.0 1018826
15:00+25n34625 1.2 10181272
18:00+25nnw2462100 0.4 1017736
21:00+19ene12723 0.4 101813